Location: Ash Swamp
(41.5170°N, 74.6157°W)
Time: 02:40:14
(UTC+00:00)

MSX - Pass Details

Date: 14 July 2020
Orbit: 894 x 906 km, 98.8° (Epoch: 14 August)

Event Time Altitude Azimuth Distance (km) Brightness Sun altitude
Rises 08:51:58 0° 10° (N) 3,519 7.7 -7.9°
Reaches altitude 10° 08:54:24 10° 8° (N) 2,575 6.9 -7.5°
Maximum altitude 09:00:03 64° 288° (WNW) 987 3.9 -6.6°
Drops below altitude 10° 09:05:42 10° 208° (SSW) 2,563 5.7 -5.8°
Enters shadow 09:07:36 - 205° (SSW) 3,302 6.2 -5.5°
